Location: Unspecified
(0.0000°N, 0.0000°E)
Time: 11:38:01
(UTC+00:00)

Vanguard 2 - Pass Details

Date: 13 October 2022
Orbit: 553 x 2933 km, 32.9° (Epoch: 29 November)

Event Time Altitude Azimuth Distance (km) Brightness Sun altitude
Rises 17:59:00 0° 301° (WNW) 6,182 13.1 -3.2°
Reaches altitude 10° 18:02:44 10° 300° (WNW) 5,376 12.7 -4.1°
Maximum altitude 18:19:58 77° 217° (SW) 2,985 10.6 -8.4°
Drops below altitude 10° 18:36:37 10° 132° (SE) 5,203 11.4 -12.5°
Sets 18:40:12 0° 130° (SE) 5,982 11.7 -13.4°
